Location: Vancouver
(49.2500°N, 123.1330°W)
Time: 00:47:15
(UTC-07:00)

S-56A Canister/Altair - Visible Passes

Search period start: 01 August 2014 00:00
Search period end: 11 August 2014 00:00
Orbit: 633 x 2503 km, 38.9° (Epoch: 30 July)

Date Brightness Start Highest point End Pass type
(mag) Time Alt. Az. Time Alt. Az. Time Alt. Az.
01 Aug 8.8 01:14:34 10° WSW 01:23:30 40° S 01:23:55 40° S visible
01 Aug 8.9 03:20:32 10° WSW 03:27:26 25° SSW 03:31:13 10° SSE visible
01 Aug 9.7 22:36:40 10° SW 22:47:07 34° SSE 22:54:42 10° ESE visible
02 Aug 8.9 00:41:34 10° WSW 00:51:13 42° S 00:53:18 36° SSE visible
02 Aug 9.8 02:47:34 10° W 02:59:26 11° SSE 02:59:39 10° SE visible
02 Aug 9.8 22:03:47 10° SW 22:14:37 33° SSE 22:22:37 10° E visible
03 Aug 9.1 00:08:31 10° WSW 00:18:53 43° S 00:22:30 29° SE visible
03 Aug 9.4 02:14:34 10° W 02:19:56 27° SW 02:19:56 27° SW visible
03 Aug 10.0 21:30:57 10° SSW 21:42:05 32° SSE 21:50:29 10° E visible
03 Aug 9.2 23:35:26 10° WSW 23:46:28 44° S 23:51:38 22° ESE visible
04 Aug 9.2 01:41:30 10° W 01:49:03 35° SW 01:49:03 35° SW visible
04 Aug 9.4 23:02:21 10° WSW 23:13:59 45° S 23:20:43 16° ESE visible
05 Aug 9.0 01:08:24 10° W 01:18:01 40° SSW 01:18:08 40° SSW visible
05 Aug 10.5 03:15:28 10° WSW 03:15:33 10° WSW 03:15:33 10° WSW visible
05 Aug 9.6 22:29:16 10° WSW 22:41:27 45° S 22:49:47 11° ESE visible
06 Aug 9.0 00:35:16 10° WSW 00:45:42 43° SSW 00:47:12 40° S visible
06 Aug 10.2 02:42:11 10° W 02:44:37 16° WSW 02:44:37 16° WSW visible
06 Aug 9.7 21:56:13 10° SW 22:08:50 45° SSE 22:18:00 10° E visible
07 Aug 9.2 00:02:06 10° WSW 00:13:19 45° S 00:16:15 36° SSE visible
07 Aug 10.0 02:08:56 10° W 02:13:40 22° WSW 02:13:40 22° WSW visible
07 Aug 9.9 21:23:12 10° SW 21:36:11 44° SSE 21:45:51 10° E visible
07 Aug 9.4 23:28:55 10° WSW 23:40:51 48° S 23:45:17 30° SE visible
08 Aug 9.7 01:35:42 10° W 01:42:43 28° SW 01:42:43 28° SW visible
08 Aug 9.5 22:55:44 10° WSW 23:08:18 49° S 23:14:20 24° ESE visible
09 Aug 9.5 01:02:27 10° W 01:11:45 34° SSW 01:11:45 34° SSW visible
09 Aug 9.6 22:22:33 10° WSW 22:35:41 51° S 22:43:22 18° ESE visible
10 Aug 9.4 00:29:11 10° W 00:39:53 38° SSW 00:40:47 37° SSW visible
10 Aug 10.7 02:37:44 10° WSW 02:38:12 11° WSW 02:38:12 11° WSW visible
10 Aug 9.8 21:49:24 10° WSW 22:02:59 52° S 22:12:24 12° ESE visible
10 Aug 11.0 23:55:56 10° W 00:00:00 21° WSW 00:00:00 21° WSW visible
